CDT,Max TemperatureF,Mean TemperatureF,Min TemperatureF,Max Dew PointF,MeanDew PointF,Min DewpointF,Max Humidity, Mean Humidity, Min Humidity, Max Sea Level PressureIn, Mean Sea Level PressureIn, Min Sea Level PressureIn, Max VisibilityMiles, Mean VisibilityMiles, Min VisibilityMiles, Max Wind SpeedMPH, Mean Wind SpeedMPH, Max Gust SpeedMPH,PrecipitationIn, CloudCover, Events, WindDirDegrees
2013-10-1,80,65,51,60,56,50,100,77,46,29.99,29.87,29.80,10,8,0,14,4,16,0.00,0,Fog,241
2013-10-2,78,60,44,55,47,42,100,84,29,30.12,30.03,29.93,10,4,0,9,1,,0.01,3,Fog,113
2013-10-3,75,66,57,70,63,49,100,88,67,29.94,29.85,29.80,10,6,0,15,5,20,0.14,5,Fog-Rain-Thunderstorm,110
2013-10-4,71,66,62,66,64,63,100,96,83,29.98,29.91,29.84,10,4,0,16,3,22,0.22,7,Fog-Rain-Thunderstorm,86
2013-10-5,75,64,54,70,62,44,100,89,69,29.90,29.82,29.72,10,6,1,14,9,22,0.02,7,Rain,124
2013-10-6,57,47,39,45,42,39,97,78,59,29.78,29.73,29.68,10,10,10,13,3,20,0.02,4,Rain,264
2013-10-7,68,56,43,48,45,40,93,78,37,30.07,29.89,29.75,10,10,4,14,7,23,0.01,2,Rain,282
2013-10-8,75,57,39,51,44,37,100,70,33,30.13,30.08,30.04,10,10,10,20,3,26,0.00,0,,144
2013-10-9,73,59,45,51,46,43,93,70,37,30.18,30.13,30.09,10,10,10,10,3,16,0.00,0,,143
2013-10-10,73,56,39,53,44,37,100,80,42,30.16,30.10,30.01,10,7,0,9,1,16,0.00,1,Fog,131
2013-10-11,75,62,48,59,53,45,93,73,50,30.01,29.94,29.84,10,8,3,20,6,29,0.00,2,,122
2013-10-12,68,54,39,57,47,37,89,66,40,30.18,29.96,29.83,10,10,7,20,8,28,0.00,2,Rain,225
2013-10-13,63,48,33,42,35,32,100,72,33,30.42,30.35,30.20,10,10,8,12,3,20,0.00,0,,290
2013-10-14,64,46,30,43,35,28,100,84,48,30.43,30.35,30.08,10,6,0,16,2,22,0.00,3,Fog,110
2013-10-15,61,55,50,57,49,43,94,82,66,30.06,29.83,29.73,10,7,2,14,10,22,0.30,7,Rain,174
2013-10-16,52,50,48,49,47,45,96,89,77,29.94,29.85,29.77,10,9,2,12,7,,0.00,8,Rain,275
2013-10-17,57,48,39,45,40,36,93,77,47,29.91,29.86,29.80,10,10,7,9,3,,0.00,5,,286
2013-10-18,50,42,37,43,38,34,93,78,59,29.94,29.88,29.80,10,10,7,18,6,29,0.00,6,,287
2013-10-19,53,40,28,40,34,27,100,84,46,29.90,29.81,29.72,10,8,1,12,2,17,0.03,4,Rain,259
2013-10-20,50,39,28,45,35,28,100,90,66,29.84,29.79,29.69,10,6,0,18,3,24,0.02,6,Fog-Rain,194
2013-10-21,45,37,28,36,28,21,81,65,45,29.98,29.91,29.80,10,10,9,20,12,26,0.00,6,Snow,286
2013-10-22,46,34,21,30,26,19,92,73,47,30.00,29.97,29.91,10,10,9,15,4,,0.00,1,Snow,283
2013-10-23,43,34,27,30,27,22,92,70,47,30.05,30.01,29.98,10,10,9,10,6,,0.00,7,Snow,292
2013-10-24,45,39,30,27,24,22,76,59,43,30.32,30.19,30.04,10,10,9,14,8,20,0.00,6,Snow,299
2013-10-25,53,38,23,29,26,20,89,60,36,30.36,30.20,29.90,10,10,9,20,6,33,0.00,3,,245
2013-10-26,52,42,34,34,30,27,78,55,43,30.08,29.94,29.79,10,10,10,17,11,34,0.00,3,,284
2013-10-27,55,40,24,31,27,21,91,68,34,30.05,29.99,29.88,10,10,7,13,2,21,0.00,0,,223
2013-10-28,44,38,33,32,30,28,82,64,55,30.40,30.30,30.06,10,10,10,15,9,22,0.00,6,,64
2013-10-29,53,45,37,40,35,28,76,68,59,30.40,30.26,30.11,10,9,8,14,8,,0.00,5,,91
2013-10-30,55,50,44,54,49,39,100,92,76,30.11,29.94,29.70,7,3,0,12,6,,0.00,7,Fog-Rain,96
2013-10-31,61,52,44,58,53,39,100,94,82,29.70,29.45,29.33,10,4,0,15,6,21,0.29,8,Fog-Rain,276